Simultaneous Nadir Overpasses (SNOs) Predictions

Prediction of SNOs between GOES-15 and LANDSAT-8 Satellite Orbit:

Table of predicted SNOs for the next 14.0 days since TLE Epoch: 6/6/2020
Index Date Time (GOES-15) GOES-15 Lat,Lon LANDSAT-8 Lat,Lon Distance(km) Time Diff (sec)
1 06/06/2020 06:33:12 -0.13,-127.97 0.36,-125.71 256.95 80
2 06/06/2020 18:54:27 0.12,-127.99 0.74,-130.87 327.15 80
3 06/08/2020 18:44:58 0.11,-127.94 0.09,-127.92 3.05 80
4 06/10/2020 18:32:48 0.11,-127.88 -0.49,-124.96 331.87 80
5 06/11/2020 06:54:13 -0.10,-127.83 -0.60,-130.15 264.07 80
6 06/13/2020 06:39:24 -0.09,-127.78 0.02,-127.20 65.04 80
7 06/15/2020 06:27:15 -0.09,-127.72 0.63,-124.25 393.83 80
8 06/15/2020 18:48:32 0.08,-127.73 0.42,-129.42 191.46 80
9 06/17/2020 18:39:03 0.08,-127.66 -0.17,-126.46 136.69 80
10 06/18/2020 07:00:28 -0.07,-127.62 -0.93,-131.66 458.61 80
11 06/19/2020 18:26:55 0.08,-127.59 -0.81,-123.52 464.08 80




NCC Satellite Simultaneous Nadir Overpasses (SNOs) Prediction Service
